This is the latest recevied weather packets stored in our database for station/object WB5LFS-1. If no packets are shown the sender has not sent any weather packets the latest 1 day(s).
| Time | Temp. | Humidity | Pressure | Rain* | Wind** | Luminosity | Snow |
|---|---|---|---|---|---|---|---|
| 1778013708 | 28.89° C | 35% | 1012 hPa | 0 mm | 0.45 m/s, 185° | - | - |
| 1778012808 | 28.33° C | 34% | 1012.1 hPa | 0 mm | 0.45 m/s, 166° | - | - |
| 1778011908 | 28.33° C | 35% | 1012.3 hPa | 0 mm | 0.45 m/s, 112° | - | - |
| 1778011008 | 28.89° C | 39% | 1012.3 hPa | 0 mm | 0.45 m/s, 109° | - | - |
| 1778010108 | 28.33° C | 35% | 1012.4 hPa | 0 mm | 0.45 m/s, 123° | - | - |
| 1778009208 | 28.33° C | 33% | 1012.6 hPa | 0 mm | 0 m/s | - | - |
| 1778008308 | 28.33° C | 35% | 1012.9 hPa | 0 mm | 0.89 m/s, 171° | - | - |
| 1778007408 | 28.33° C | 36% | 1013.2 hPa | 0 mm | 0.45 m/s, 304° | - | - |
| 1778006508 | 28.33° C | 35% | 1013.3 hPa | 0 mm | 0.45 m/s, 149° | - | - |
| 1778005608 | 28.33° C | 34% | 1013.5 hPa | 0 mm | 0.45 m/s, 332° | - | - |
| 1778004708 | 28.33° C | 38% | 1013.7 hPa | 0 mm | 0 m/s | - | - |
| 1778003808 | 28.33° C | 35% | 1013.8 hPa | 0 mm | 0 m/s | - | - |
| 1778002908 | 27.78° C | 38% | 1014 hPa | 0 mm | 0.89 m/s, 227° | - | - |
| 1778002008 | 27.78° C | 37% | 1013.9 hPa | 0 mm | 0 m/s | - | - |
| 1778001108 | 27.78° C | 36% | 1013.9 hPa | 0 mm | 0 m/s | - | - |
| 1778000208 | 27.22° C | 41% | 1014.2 hPa | 0 mm | 0.45 m/s, 151° | - | - |
| 1777999308 | 26.67° C | 44% | 1014.4 hPa | 0 mm | 0.45 m/s, 167° | - | - |
| 1777998408 | 26.67° C | 45% | 1014.7 hPa | 0 mm | 0.45 m/s, 169° | - | - |
| 1777997508 | 26.11° C | 45% | 1014.9 hPa | 0 mm | 0.45 m/s, 261° | - | - |
| 1777996608 | 26.11° C | 45% | 1015 hPa | 0 mm | 0.45 m/s, 186° | - | - |
| 1777995708 | 25.56° C | 45% | 1014.9 hPa | 0 mm | 0 m/s | - | - |
| 1777994808 | 24.44° C | 49% | 1015 hPa | 0 mm | 0 m/s | - | - |
| 1777993908 | 23.89° C | 49% | 1014.9 hPa | 0 mm | 0 m/s | - | - |
| 1777993008 | 23.89° C | 50% | 1014.9 hPa | 0 mm | 0 m/s | - | - |
| 1777992108 | 23.33° C | 53% | 1015.1 hPa | 0 mm | 0 m/s | - | - |
* Rain latest hour (hover to see other rain measurements)
** Current wind speed in m/s (hover to see current wind gust speed)